Weather History for Phoenix, AZ

Change the Weather History Date:

Thursday, February 7, 2013

  Actual Average Record
Temperature  
Mean Temperature 63 °F 59 °F  
Max Temperature 74 °F 70 °F 89 °F (1963)
Min Temperature 51 °F 48 °F 24 °F (1899)
Degree Days  
Heating Degree Days 2 7  
Month to date heating degree days 15 49  
Since 1 July heating degree days 647 719  
Cooling Degree Days 0 0  
Month to date cooling degree days 2 0  
Year to date cooling degree days 7 2  
Growing Degree Days 12 (Base 50)    
Moisture  
Dew Point 40 °F    
Average Humidity 51    
Maximum Humidity 77    
Minimum Humidity 25    
Precipitation  
Precipitation 0.00 in 0.03 in 0.74 in (1935)
Month to date precipitation T 0.20  
Year to date precipitation 1.39 1.11  
Snow  
Snow 0.00 in - - ()
Month to date snowfall 0.0  
Year to date snowfall 0.0  
Since 1 July snowfall 0.0  
Snow Depth 0.00 in    
Sea Level Pressure  
Sea Level Pressure 29.98 in    
Wind  
Wind Speed 4 mph (ESE)    
Max Wind Speed 8 mph    
Max Gust Speed 12 mph    
Visibility 10 miles    
Events      
T = Trace of Precipitation, MM = Missing Value Source: NWS Daily Summary

Daily Weather History Graph

Daily Weather History Graph

Search for Another Location

Airport:

Trip Planner

Search our weather history database for the weather conditions in past years. The results will help you decide how hot, cold, wet, or windy it might be!

Date:

Astronomy

Feb. 07, 2013 Rise Set
Actual Time 7:19 AM MST 6:05 PM MST
Civil Twilight 6:53 AM MST 6:31 PM MST
Nautical Twilight 6:23 AM MST 7:00 PM MST
Astronomical Twilight 5:54 AM MST 7:29 PM MST
Moon 4:57 AM MST (2/7) 3:38 PM MST (2/7)
Length of Visible Light 11h 38m
Length of Day
10h 46m
Waning Crescent, 8% of the Moon is Illuminated
Feb 7
Waning Crescent
Feb 10
New
Feb 17
First Quarter
Feb 25
Full
Mar 4
Last Quarter

Hourly Weather History & Observations

Time (MST) Temp. Dew Point Humidity Pressure Visibility Wind Dir Wind Speed Gust Speed Precip Events Conditions
12:51 AM 57.9 °F 45.0 °F 62% 29.98 in 10.0 mi East 3.5 mph - N/A   Partly Cloudy
1:51 AM 57.9 °F 44.1 °F 60% 29.99 in 10.0 mi ENE 3.5 mph - N/A   Partly Cloudy
2:51 AM 57.0 °F 44.1 °F 62% 29.99 in 10.0 mi ENE 3.5 mph - N/A   Partly Cloudy
3:51 AM 54.0 °F 44.1 °F 69% 30.00 in 10.0 mi ESE 3.5 mph - N/A   Partly Cloudy
4:51 AM 53.1 °F 44.1 °F 71% 30.01 in 10.0 mi ESE 4.6 mph - N/A   Partly Cloudy
5:51 AM 52.0 °F 44.1 °F 74% 30.02 in 10.0 mi ESE 6.9 mph - N/A   Partly Cloudy
6:51 AM 52.0 °F 43.0 °F 71% 30.03 in 10.0 mi East 3.5 mph - N/A   Partly Cloudy
7:51 AM 53.1 °F 43.0 °F 69% 30.05 in 10.0 mi ESE 4.6 mph - N/A   Partly Cloudy
8:51 AM 57.0 °F 43.0 °F 59% 30.07 in 10.0 mi ESE 8.1 mph - N/A   Clear
9:51 AM 60.1 °F 43.0 °F 53% 30.08 in 10.0 mi SE 6.9 mph - N/A   Partly Cloudy
10:51 AM 63.0 °F 42.1 °F 46% 30.07 in 10.0 mi ESE 5.8 mph - N/A   Partly Cloudy
11:51 AM 66.0 °F 41.0 °F 40% 30.05 in 10.0 mi East 4.6 mph - N/A   Partly Cloudy
12:51 PM 69.1 °F 39.0 °F 33% 30.02 in 10.0 mi Calm Calm - N/A   Partly Cloudy
1:51 PM 73.0 °F 37.9 °F 28% 29.98 in 10.0 mi Variable 3.5 mph - N/A   Partly Cloudy
2:51 PM 72.0 °F 36.0 °F 27% 29.96 in 10.0 mi Calm Calm - N/A   Partly Cloudy
3:51 PM 73.0 °F 37.0 °F 27% 29.94 in 10.0 mi SW 3.5 mph - N/A   Partly Cloudy
4:51 PM 72.0 °F 35.1 °F 26% 29.94 in 10.0 mi SSW 5.8 mph - N/A   Partly Cloudy
5:51 PM 71.1 °F 34.0 °F 26% 29.92 in 10.0 mi South 6.9 mph - N/A   Partly Cloudy
6:51 PM 68.0 °F 36.0 °F 31% 29.93 in 10.0 mi Calm Calm - N/A   Partly Cloudy
7:51 PM 66.0 °F 37.0 °F 34% 29.93 in 10.0 mi Calm Calm - N/A   Clear
8:51 PM 64.0 °F 39.0 °F 40% 29.92 in 10.0 mi ESE 3.5 mph - N/A   Clear
9:51 PM 62.1 °F 39.0 °F 43% 29.90 in 10.0 mi Calm Calm - N/A   Clear
10:51 PM 59.0 °F 39.9 °F 49% 29.89 in 10.0 mi East 6.9 mph - N/A   Scattered Clouds
11:51 PM 57.9 °F 39.9 °F 51% 29.89 in 10.0 mi East 4.6 mph - N/A   Scattered Clouds